ARG4522 SAVC-SAVE

Flight info

Callsign ARG4522
Flight time 0h 49m
Altitude 32000
Route VUKNA2G VUKNA UW50 ESQ
Aircraft B738/M-SDE2E3FGHIRWXY/LB1

Departure

Time 2026-04-15 10:28
Airport General Enrique Mosconi International Airport (SAVC)

Arrival

Time 2026-04-15 11:17
Airport Esquel Brigadier Antonio Parodi International Airport (SAVE)
Time Latitude Longitude Altitude Speed Heading
2026-04-15 10:16 -45.78955 -67.46897 143 ft 0 kts 235°
2026-04-15 10:20 -45.78955 -67.46896 143 ft 2 kts 235°
2026-04-15 10:20 -45.78939 -67.46871 142 ft 4 kts 204°
2026-04-15 10:21 -45.78920 -67.46870 142 ft 4 kts 131°
2026-04-15 10:21 -45.78913 -67.46894 143 ft 0 kts 88°
2026-04-15 10:23 -45.78913 -67.46891 142 ft 2 kts 88°
2026-04-15 10:23 -45.78904 -67.46815 141 ft 12 kts 52°
2026-04-15 10:24 -45.78812 -67.46801 141 ft 14 kts 357°
2026-04-15 10:24 -45.78747 -67.46725 139 ft 14 kts 78°
2026-04-15 10:24 -45.78729 -67.46595 140 ft 14 kts 79°
2026-04-15 10:24 -45.78710 -67.46447 141 ft 18 kts 79°
2026-04-15 10:25 -45.78682 -67.46231 136 ft 25 kts 78°
2026-04-15 10:25 -45.78647 -67.45970 128 ft 27 kts 79°
2026-04-15 10:25 -45.78612 -67.45703 125 ft 27 kts 79°
2026-04-15 10:25 -45.78578 -67.45450 116 ft 25 kts 79°
2026-04-15 10:26 -45.78546 -67.45213 113 ft 23 kts 79°
2026-04-15 10:26 -45.78517 -67.44990 111 ft 22 kts 79°
2026-04-15 10:26 -45.78420 -67.44841 108 ft 22 kts 20°
2026-04-15 10:26 -45.78339 -67.44835 106 ft 10 kts 351°
2026-04-15 10:27 -45.78306 -67.44905 108 ft 8 kts 262°
2026-04-15 10:27 -45.78337 -67.45155 111 ft 63 kts 260°
2026-04-15 10:27 -45.78469 -67.46155 133 ft 139 kts 259°
2026-04-15 10:27 -45.78691 -67.47790 420 ft 185 kts 261°
2026-04-15 10:28 -45.79165 -67.49624 930 ft 210 kts 246°
2026-04-15 10:28 -45.79812 -67.51461 2244 ft 204 kts 250°
2026-04-15 10:28 -45.80438 -67.53302 2996 ft 205 kts 250°
2026-04-15 10:28 -45.81051 -67.55134 3763 ft 204 kts 251°
2026-04-15 10:29 -45.81663 -67.56992 4438 ft 208 kts 251°
2026-04-15 10:29 -45.82282 -67.58879 5265 ft 210 kts 251°
2026-04-15 10:29 -45.82551 -67.60855 6200 ft 201 kts 282°
2026-04-15 10:29 -45.82041 -67.62707 6996 ft 203 kts 300°
2026-04-15 10:30 -45.81083 -67.64228 7771 ft 209 kts 316°
2026-04-15 10:30 -45.79904 -67.65486 8567 ft 214 kts 319°
2026-04-15 10:30 -45.78648 -67.66758 9043 ft 232 kts 319°
2026-04-15 10:30 -45.77295 -67.68134 9664 ft 242 kts 319°
2026-04-15 10:31 -45.75909 -67.69551 10430 ft 246 kts 319°
2026-04-15 10:31 -45.74513 -67.70983 11192 ft 248 kts 319°
2026-04-15 10:31 -45.73066 -67.72478 11569 ft 268 kts 319°
2026-04-15 10:31 -45.71434 -67.74029 11765 ft 296 kts 327°
2026-04-15 10:32 -45.69481 -67.75323 11974 ft 320 kts 331°
2026-04-15 10:32 -45.67384 -67.76581 12478 ft 331 kts 332°
2026-04-15 10:32 -45.65268 -67.77829 13181 ft 335 kts 332°
2026-04-15 10:32 -45.63107 -67.79109 13958 ft 337 kts 332°
2026-04-15 10:33 -45.60936 -67.80406 14649 ft 339 kts 332°
2026-04-15 10:33 -45.58752 -67.81721 15330 ft 342 kts 331°
2026-04-15 10:33 -45.56551 -67.83053 15979 ft 345 kts 331°
2026-04-15 10:33 -45.54331 -67.84401 16637 ft 348 kts 331°
2026-04-15 10:34 -45.52095 -67.85758 17321 ft 350 kts 331°
2026-04-15 10:34 -45.49844 -67.87125 17985 ft 353 kts 331°
2026-04-15 10:34 -45.47570 -67.88505 18588 ft 357 kts 331°
2026-04-15 10:34 -45.46024 -67.89443 18974 ft 358 kts 331°
2026-04-15 10:35 -45.43757 -67.90817 19582 ft 359 kts 331°
2026-04-15 10:35 -45.41421 -67.92231 20195 ft 361 kts 331°
2026-04-15 10:35 -45.39128 -67.93618 20721 ft 364 kts 332°
2026-04-15 10:35 -45.36791 -67.95031 21235 ft 367 kts 332°
2026-04-15 10:36 -45.34517 -67.96659 21774 ft 365 kts 325°
2026-04-15 10:36 -45.32437 -67.98695 22337 ft 363 kts 318°
2026-04-15 10:36 -45.30575 -68.01115 22846 ft 364 kts 314°
2026-04-15 10:36 -45.28741 -68.03624 23330 ft 367 kts 314°
2026-04-15 10:37 -45.26902 -68.06146 23808 ft 369 kts 315°
2026-04-15 10:37 -45.25053 -68.08672 24245 ft 370 kts 315°
2026-04-15 10:37 -45.23190 -68.11204 24650 ft 372 kts 315°
2026-04-15 10:37 -45.21312 -68.13746 25051 ft 374 kts 315°
2026-04-15 10:38 -45.19426 -68.16292 25485 ft 375 kts 315°
2026-04-15 10:38 -45.17536 -68.18840 25911 ft 375 kts 316°
2026-04-15 10:38 -45.15639 -68.21396 26282 ft 378 kts 316°
2026-04-15 10:38 -45.13727 -68.23968 26631 ft 380 kts 316°
2026-04-15 10:39 -45.11805 -68.26549 27022 ft 381 kts 316°
2026-04-15 10:39 -45.09868 -68.29117 27421 ft 382 kts 317°
2026-04-15 10:39 -45.07890 -68.31654 27767 ft 384 kts 317°
2026-04-15 10:39 -45.05896 -68.34181 28087 ft 386 kts 318°
2026-04-15 10:40 -45.03887 -68.36725 28438 ft 388 kts 318°
2026-04-15 10:40 -45.01879 -68.39274 28796 ft 389 kts 318°
2026-04-15 10:40 -44.99863 -68.41839 29122 ft 391 kts 318°
2026-04-15 10:40 -44.97872 -68.44372 29528 ft 390 kts 318°
2026-04-15 10:41 -44.95838 -68.46958 30079 ft 386 kts 319°
2026-04-15 10:41 -44.93858 -68.49494 30594 ft 382 kts 318°
2026-04-15 10:41 -44.91937 -68.52006 30956 ft 381 kts 317°
2026-04-15 10:41 -44.89996 -68.54565 31257 ft 382 kts 317°
2026-04-15 10:42 -44.88059 -68.57123 31631 ft 381 kts 317°
2026-04-15 10:42 -44.86131 -68.59667 32055 ft 378 kts 318°
2026-04-15 10:42 -44.84198 -68.62210 32099 ft 383 kts 318°
2026-04-15 10:43 -44.80313 -68.67310 32126 ft 379 kts 318°
2026-04-15 10:43 -44.76470 -68.72337 32134 ft 377 kts 318°
2026-04-15 10:44 -44.72626 -68.77356 32146 ft 377 kts 318°
2026-04-15 10:44 -44.68778 -68.82368 32138 ft 377 kts 318°
2026-04-15 10:45 -44.64933 -68.87367 32145 ft 376 kts 318°
2026-04-15 10:45 -44.61087 -68.92359 32147 ft 377 kts 318°
2026-04-15 10:46 -44.57237 -68.97346 32151 ft 376 kts 318°
2026-04-15 10:46 -44.53388 -69.02322 32141 ft 376 kts 318°
2026-04-15 10:47 -44.49544 -69.07283 32157 ft 375 kts 319°
2026-04-15 10:47 -44.45704 -69.12229 32148 ft 375 kts 319°
2026-04-15 10:48 -44.41869 -69.17160 32160 ft 374 kts 319°
2026-04-15 10:48 -44.38069 -69.22036 32167 ft 373 kts 319°
2026-04-15 10:49 -44.34224 -69.26960 32167 ft 372 kts 319°
2026-04-15 10:49 -44.30437 -69.31803 32153 ft 371 kts 319°
2026-04-15 10:50 -44.26632 -69.36658 32171 ft 370 kts 319°
2026-04-15 10:50 -44.22833 -69.41498 32168 ft 369 kts 319°
2026-04-15 10:51 -44.19134 -69.46202 32179 ft 369 kts 319°
2026-04-15 10:51 -44.15339 -69.51018 32177 ft 369 kts 319°
2026-04-15 10:52 -44.11547 -69.55823 32187 ft 368 kts 319°
2026-04-15 10:52 -44.07753 -69.60620 31872 ft 372 kts 319°
2026-04-15 10:52 -44.05845 -69.63031 31357 ft 370 kts 319°
2026-04-15 10:53 -44.03943 -69.65430 30775 ft 368 kts 319°
2026-04-15 10:53 -44.02048 -69.67820 30106 ft 368 kts 319°
2026-04-15 10:53 -44.00165 -69.70192 29592 ft 362 kts 319°
2026-04-15 10:53 -43.98315 -69.72520 29121 ft 356 kts 319°
2026-04-15 10:54 -43.96491 -69.74814 28653 ft 351 kts 319°
2026-04-15 10:54 -43.94697 -69.77067 28199 ft 345 kts 318°
2026-04-15 10:54 -43.92932 -69.79282 27761 ft 339 kts 318°
2026-04-15 10:54 -43.91195 -69.81460 27329 ft 334 kts 318°
2026-04-15 10:55 -43.89487 -69.83600 26907 ft 329 kts 317°
2026-04-15 10:55 -43.87801 -69.85710 26507 ft 324 kts 317°
2026-04-15 10:55 -43.86140 -69.87788 26103 ft 320 kts 317°
2026-04-15 10:55 -43.84494 -69.89845 25702 ft 317 kts 316°
2026-04-15 10:56 -43.82867 -69.91876 25325 ft 313 kts 316°
2026-04-15 10:56 -43.81239 -69.93909 24915 ft 318 kts 316°
2026-04-15 10:56 -43.79563 -69.96002 24503 ft 330 kts 315°
2026-04-15 10:56 -43.77853 -69.98134 24084 ft 330 kts 315°
2026-04-15 10:57 -43.76160 -70.00241 23646 ft 325 kts 315°
2026-04-15 10:57 -43.72844 -70.04361 22800 ft 315 kts 314°
2026-04-15 10:57 -43.71230 -70.06364 22388 ft 310 kts 314°
2026-04-15 10:58 -43.69639 -70.08339 22005 ft 305 kts 314°
2026-04-15 10:58 -43.68073 -70.10280 21617 ft 301 kts 313°
2026-04-15 10:58 -43.66522 -70.12204 21237 ft 299 kts 313°
2026-04-15 10:58 -43.65001 -70.14089 20859 ft 297 kts 313°
2026-04-15 10:59 -43.63456 -70.16004 20494 ft 302 kts 313°
2026-04-15 10:59 -43.61857 -70.17991 19945 ft 315 kts 313°
2026-04-15 10:59 -43.60230 -70.20004 19505 ft 313 kts 313°
2026-04-15 10:59 -43.58608 -70.22006 19084 ft 313 kts 312°
2026-04-15 11:00 -43.56987 -70.24004 18675 ft 311 kts 312°
2026-04-15 11:00 -43.55381 -70.25982 18241 ft 309 kts 312°
2026-04-15 11:00 -43.53786 -70.27945 17843 ft 305 kts 312°
2026-04-15 11:00 -43.52213 -70.29881 17471 ft 302 kts 312°
2026-04-15 11:01 -43.50646 -70.31810 17095 ft 303 kts 312°
2026-04-15 11:01 -43.49069 -70.33753 16709 ft 304 kts 312°
2026-04-15 11:01 -43.47502 -70.35678 16350 ft 299 kts 313°
2026-04-15 11:01 -43.45958 -70.37572 15971 ft 295 kts 313°
2026-04-15 11:02 -43.44435 -70.39439 15555 ft 292 kts 313°
2026-04-15 11:02 -43.42922 -70.41296 15126 ft 291 kts 313°
2026-04-15 11:02 -43.41421 -70.43135 14882 ft 284 kts 313°
2026-04-15 11:02 -43.39966 -70.44914 14725 ft 275 kts 313°
2026-04-15 11:03 -43.38566 -70.46626 14605 ft 265 kts 313°
2026-04-15 11:03 -43.37213 -70.48282 14489 ft 255 kts 312°
2026-04-15 11:03 -43.35909 -70.49876 14378 ft 246 kts 312°
2026-04-15 11:03 -43.34654 -70.51408 14284 ft 237 kts 312°
2026-04-15 11:04 -43.33441 -70.52887 14184 ft 229 kts 312°
2026-04-15 11:04 -43.32276 -70.54307 14084 ft 220 kts 312°
2026-04-15 11:04 -43.31112 -70.55629 13338 ft 218 kts 324°
2026-04-15 11:04 -43.29738 -70.56678 13092 ft 239 kts 330°
2026-04-15 11:05 -43.28163 -70.57745 12775 ft 262 kts 332°
2026-04-15 11:05 -43.26470 -70.58868 12534 ft 278 kts 332°
2026-04-15 11:05 -43.24706 -70.60036 12285 ft 283 kts 332°
2026-04-15 11:05 -43.22928 -70.61219 12047 ft 285 kts 332°
2026-04-15 11:06 -43.21142 -70.62412 11799 ft 285 kts 332°
2026-04-15 11:06 -43.19373 -70.63597 11553 ft 282 kts 332°
2026-04-15 11:06 -43.17622 -70.64773 11307 ft 278 kts 332°
2026-04-15 11:06 -43.15894 -70.65936 11054 ft 275 kts 332°
2026-04-15 11:07 -43.14183 -70.67088 10813 ft 272 kts 332°
2026-04-15 11:07 -43.12492 -70.68228 10574 ft 270 kts 332°
2026-04-15 11:07 -43.10814 -70.69359 10334 ft 268 kts 332°
2026-04-15 11:07 -43.09142 -70.70485 10098 ft 267 kts 332°
2026-04-15 11:08 -43.07500 -70.71591 9846 ft 267 kts 332°
2026-04-15 11:08 -43.05817 -70.72724 9571 ft 266 kts 332°
2026-04-15 11:08 -43.04158 -70.73840 9311 ft 265 kts 332°
2026-04-15 11:08 -43.02526 -70.74938 9057 ft 265 kts 332°
2026-04-15 11:09 -43.00874 -70.76049 8796 ft 264 kts 332°
2026-04-15 11:09 -42.99226 -70.77156 8536 ft 263 kts 332°
2026-04-15 11:09 -42.97583 -70.78258 8273 ft 263 kts 332°
2026-04-15 11:09 -42.95946 -70.79356 8023 ft 261 kts 332°
2026-04-15 11:10 -42.94317 -70.80449 7767 ft 260 kts 332°
2026-04-15 11:10 -42.92695 -70.81537 7523 ft 259 kts 333°
2026-04-15 11:10 -42.91085 -70.82615 7267 ft 255 kts 333°
2026-04-15 11:10 -42.89512 -70.83668 7009 ft 248 kts 333°
2026-04-15 11:11 -42.87982 -70.84692 6758 ft 241 kts 332°
2026-04-15 11:11 -42.86501 -70.85693 6509 ft 235 kts 333°
2026-04-15 11:11 -42.85055 -70.86654 6334 ft 225 kts 333°
2026-04-15 11:11 -42.83660 -70.87582 6295 ft 221 kts 333°
2026-04-15 11:12 -42.82323 -70.88471 6310 ft 207 kts 333°
2026-04-15 11:12 -42.81165 -70.89492 6273 ft 195 kts 307°
2026-04-15 11:12 -42.80790 -70.91223 6227 ft 199 kts 264°
2026-04-15 11:12 -42.81179 -70.93021 5999 ft 195 kts 251°
2026-04-15 11:13 -42.81709 -70.94663 5724 ft 184 kts 246°
2026-04-15 11:13 -42.82256 -70.96175 5491 ft 179 kts 244°
2026-04-15 11:13 -42.82892 -70.97675 5257 ft 182 kts 241°
2026-04-15 11:13 -42.83551 -70.99096 5004 ft 176 kts 240°
2026-04-15 11:14 -42.84190 -71.00449 4784 ft 166 kts 240°
2026-04-15 11:14 -42.84803 -71.01747 4560 ft 161 kts 240°
2026-04-15 11:14 -42.85412 -71.03037 4280 ft 163 kts 239°
2026-04-15 11:14 -42.86024 -71.04334 3991 ft 162 kts 239°
2026-04-15 11:15 -42.86632 -71.05619 3720 ft 160 kts 238°
2026-04-15 11:15 -42.87233 -71.06888 3477 ft 159 kts 238°
2026-04-15 11:15 -42.87832 -71.08157 3296 ft 159 kts 238°
2026-04-15 11:15 -42.88429 -71.09412 3089 ft 156 kts 238°
2026-04-15 11:16 -42.89006 -71.10655 2909 ft 155 kts 239°
2026-04-15 11:16 -42.89587 -71.11880 2700 ft 155 kts 239°
2026-04-15 11:16 -42.90166 -71.13106 2586 ft 147 kts 237°
2026-04-15 11:16 -42.90588 -71.13994 2611 ft 72 kts 237°
2026-04-15 11:17 -42.90714 -71.14291 2618 ft 23 kts 251°
2026-04-15 11:17 -42.90743 -71.14463 2621 ft 17 kts 266°
2026-04-15 11:17 -42.90716 -71.14584 2621 ft 14 kts 326°
2026-04-15 11:17 -42.90642 -71.14599 2619 ft 1 kts